Regional Weather Roundup
Issued by NWS

Home | Current Version | Previous Version | Text Only | Print | Product List | Glossary Off
Versions: 1 2 3 4 5 6 7 8 9 10 11 12 13 14 15 16 17 18 19 20 21 22 23 24 25 26 27 28 29 30 31 32 33 34 35 36 37 38 39 40 41 42 43 44 45 46 47 48 49 50

000
ASUS45 KCYS 220610
RWRWY

WYOMING REGIONAL WEATHER ROUNDUP
NATIONAL WEATHER SERVICE CHEYENNE WY
1200 AM MDT TUE AUG 22 2017

NOTE:  "FAIR" INDICATES FEW OR NO CLOUDS BELOW 12,000 FEET
WITH NO SIGNIFICANT WEATHER AND/OR OBSTRUCTIONS TO VISIBILITY.

WYZ001-220700-
YELLOWSTONE NATIONAL PARK

CITY           SKY/WX    TMP DP  RH WIND       PRES   REMARKS
LK YELLOWSTONE   N/A     42  36  79 CALM      30.43R
6HR MIN TEMP:  42; 6HR MAX TEMP:  69;

W YELLOWSTONE  NOT AVBL

$$
WYZ002>013-054>058-071-098>099-220700-
NORTHERN WYOMING

CITY           SKY/WX    TMP DP  RH WIND       PRES   REMARKS
JACKSON        FAIR      48  31  51 N6        30.32R
CODY           FAIR      58  31  35 S5        30.27S
GREYBULL       FAIR      62  34  35 S7        30.17R
6HR MIN TEMP:  61; 6HR MAX TEMP:  85;

WORLAND        FAIR      56  37  49 CALM      30.19S
6HR MIN TEMP:  55; 6HR MAX TEMP:  83;

SHERIDAN       FAIR      52  40  63 SW5       30.23S
6HR MIN TEMP:  51; 6HR MAX TEMP:  81;

BUFFALO        FAIR      59  32  36 SW7       30.29S
6HR MIN TEMP:  57; 6HR MAX TEMP:  78;

GILLETTE       FAIR      49  35  58 S3        30.25S
6HR MIN TEMP:  47; 6HR MAX TEMP:  77;

HULETT         FAIR      55  36  47 CALM      30.26S
NEWCASTLE      FAIR      52  34  50 W3        30.26R

$$
WYZ014>020-022>026-101>103-220700-
CENTRAL WYOMING

CITY           SKY/WX    TMP DP  RH WIND       PRES   REMARKS
BIG PINEY      FAIR      49  24  37 VRB3      30.35R
6HR MIN TEMP:  49; 6HR MAX TEMP:  80;

PINEDALE       FAIR      45  28  53 NW6       30.36S
DUBOIS         FAIR      52  28  40 NW9       30.38R
LANDER           N/A    N/A N/A N/A MISG      30.30R
RIVERTON       FAIR      63  37  38 E6        30.27S
6HR MIN TEMP:  63; 6HR MAX TEMP:  83;

CASPER         FAIR      58  35  42 NE12      30.26F
6HR MIN TEMP:  58; 6HR MAX TEMP:  81;

DOUGLAS        FAIR      56  41  57 SE9       30.28S
6HR MIN TEMP:  53; 6HR MAX TEMP:  78;


$$
WYZ021-027>030-104>119-220700-
SOUTHERN WYOMING

CITY           SKY/WX    TMP DP  RH WIND       PRES   REMARKS
EVANSTON       FAIR      65  35  33 S6        30.36S
6HR MIN TEMP:  62; 6HR MAX TEMP:  79; 6HR PCP: TRACE;

KEMMERER         N/A     55  30  38 N9        30.38R
FORT BRIDGER   CLEAR     63  30  29 SW9       30.38S
ROCK SPRINGS   FAIR      65  30  27 NE7       30.32R
6HR MIN TEMP:  65; 6HR MAX TEMP:  83;

RAWLINS        FAIR      60  36  40 NE12      30.31S
6HR MIN TEMP:  60; 6HR MAX TEMP:  83;

SARATOGA       FAIR      54  37  54 CALM      30.32R
LARAMIE        FAIR      60  42  51 S8        30.37S
6HR MIN TEMP:  57; 6HR MAX TEMP:  79;

CHEYENNE       FAIR      60  43  53 E3        30.34R
6HR MIN TEMP:  59; 6HR MAX TEMP:  76;

TORRINGTON     FAIR      60  43  53 SE6       30.24R
6HR MIN TEMP:  59; 6HR MAX TEMP:  80;

PINE BLUFFS    FAIR      57  45  62 NE7       30.29S

$$



USA.gov is the U.S. government's official web portal to all federal, state and local government web resources and services.